TITAN 3C TRANSTAGE DEB, 39296

Orbit data source: Space-Track

TITAN 3C TRANSTAGE DEB, 39296 is space debris in GEO originally from a launch on Thu, 26 Sep 1968 UTC launched from the Air Force Eastern Test Range (AFETR). Debris objects in space refer to the collection of defunct objects orbiting the Earth. Examples of debris include non-operational satellites, rocket bodies, and fragments generated from explosions, collisions, or faulty payload assembly.

Loading next visibility...
Identifier
39296, 1968-081AG
Orbit
GEO
Country
Flag of USUS
Related business
Manufacturer
Unknown
Mission
Spacecraft
Bus & Motor
Unknown
Mass
Unknown
Launch date (UTC)
1968-09-26 (57 years ago)
Launch vehicle
Unknown
Launch site
Air Force Eastern Test Range (AFETR)
Object type
Payload
Rocket body
Debris
Shape & HBR
Unknown shape, 1.1 m
Radar Cross Section
RCS unknown

Expand to show TLE details & history
Last TLE update: 15 hours ago

TLE from 15 hours ago
0 TITAN 3C TRANSTAGE DEB
1 39296U 68081AG  25352.73890244  .00000087  00000-0  00000-0 0  9991
2 39296   1.3700  19.2441 0170317 309.0329 240.3066  1.00583101 49876
Epoch: 2025-12-18T17:44Z
TLE epoch observation values (Epoch: 2025-12-18T17:44:01.170Z)
Latitude
-0.19866°
Longitude
-146.69917°
Altitude
36,059.532 km
Speed
3.052 km/s
True Right ascension
13h 47m 34s
True Declination
0° 11' 54"
Sunlit
Object was in daylight at epoch
Visualization orbit readout
Latitude
Unknown
Longitude
Unknown
Altitude
Unknown
Speed
Unknown
Apparent Right ascension
Unknown
Apparent Declination
Unknown
Sunlit
N/A
Visualization observer readout
Local Sidereal Time
07:11:25
Azimuth
Unknown
Elevation
Unknown
Doppler factor
Unknown
Orbital elements
Apogee altitude
36,417.292 km
Perigee altitude
34,983.946 km
Semi-major axis
42,078.756 km
Eccentricity
0.01703
Inclination
1.37°
RAAN
19.2441°
Arg. of periapsis
309.0329°
True anomaly
238.62913°
Mean anomaly
240.3066°
Eccentric anomaly
239.46608°
Mean motion
0.25145 °/min
Orbital period
1,431.71 mins
BSTAR
0
Loading maneuver chart data...
Computing Atmospheric mass density...

Documentation

Showing up to 5 results
|